Location: Unspecified
(0.0000°N, 0.0000°E)
Time: 08:43:42
(UTC+02:00)

Centaur D-1AR AC-41 - Visible Passes

Search period start: 29 September 2016 00:00
Search period end: 09 October 2016 00:00
Orbit: 639 x 36202 km, 21.7° (Epoch: 28 September)

Date Brightness Start Highest point End Pass type
(mag) Time Alt. Az. Time Alt. Az. Time Alt. Az.
29 Sep 5.8 05:04:16 15° NNE 05:04:52 15° NE 05:10:29 10° ENE visible
30 Sep 6.4 14:00:40 10° W 15:46:19 42° WSW 23:52:15 40° NW visible
01 Oct 6.3 11:17:03 10° W 21:14:37 84° NNW 21:27:55 27° ENE visible
03 Oct 5.3 06:14:39 19° NNW 06:19:18 43° NE 16:10:47 10° E visible
04 Oct 10.1 15:39:00 10° WSW 17:04:22 22° WSW 19:58:36 10° WSW visible
05 Oct 7.3 01:01:03 10° WNW 01:02:42 12° WNW 01:02:42 12° WNW visible
05 Oct 5.8 12:35:49 10° W 14:24:41 56° SW 22:38:20 49° NNE visible
06 Oct 6.8 09:57:55 10° W 19:45:58 85° SSE 20:12:49 10° ENE visible
08 Oct 5.6 05:00:39 23° NNE 05:01:06 23° NE 05:11:56 10° E visible
